Location: Kelshall
(52.0000°N, 0.0500°W)
Time: 22:55:37
(UTC+00:00)

Meteor 1-21 Rocket - Pass Details

Date: 18 September 2020
Orbit: 834 x 906 km, 81.2° (Epoch: 30 October)

Event Time Altitude Azimuth Distance (km) Brightness Sun altitude
Rises 21:01:27 0° 349° (N) 3,450 8.2 -25.4°
Reaches altitude 10° 21:03:56 10° 354° (N) 2,520 7.2 -25.7°
Enters shadow 21:09:25 53° 66° (ENE) 1,071 4.5 -26.3°
